Overview Statistics Trail Chart Weather Telemetry Raw packets
 

This is the latest recevied weather packets stored in our database for station/object W0CHP-13. If no packets are shown the sender has not sent any weather packets the latest 10 day(s).

<< 50 51 52 53 54 55 56 >>
Time Temp. Humidity Pressure Rain* Wind** Luminosity Snow
1787927596 19.44° C 74% 1019.6 hPa 0 mm - 351 W/m² -
1787926998 18.89° C 76% 1019.3 hPa 0 mm - 326 W/m² -
1787926397 18.33° C 76% 1019.6 hPa 0 mm - 298 W/m² -
1787925796 17.78° C 80% 1019.6 hPa 0 mm - 270 W/m² -
1787925198 16.67° C 83% 1019.8 hPa 0 mm - 249 W/m² -
1787924597 16.11° C 85% 1019.7 hPa 0 mm - 228 W/m² -
1787923996 15.56° C 86% 1019.6 hPa 0 mm - 126 W/m² -
1787923397 15.56° C 87% 1019.6 hPa 0 mm - 95 W/m² -
1787922795 15° C 88% 1019.6 hPa 0 mm - 76 W/m² -
1787922198 15° C 91% 1019.6 hPa 0 mm - 37 W/m² -
1787921596 14.44° C 93% 1019.3 hPa 0 mm - 36 W/m² -
1787920999 14.44° C 92% 1019.6 hPa 0 mm - 34 W/m² -
1787920397 13.89° C 91% 1019.2 hPa 0 mm - 34 W/m² -
1787919795 13.89° C 91% 1019.2 hPa 0 mm - 26 W/m² -
1787919198 13.89° C 91% 1019.2 hPa 0 mm - 22 W/m² -
1787918595 13.89° C 91% 1019 hPa 0 mm - 18 W/m² -
1787917997 13.89° C 91% 1018.9 hPa 0 mm - 14 W/m² -
1787917396 13.33° C 92% 1018.9 hPa 0 mm - 9 W/m² -
1787916798 13.33° C 92% 1018.8 hPa 0 mm - 5 W/m² -
1787916196 13.33° C 89% 1018.8 hPa 0 mm - 2 W/m² -
1787915599 13.33° C 89% 1018.5 hPa 0 mm - 0 W/m² -
1787914997 13.33° C 88% 1018.5 hPa 0 mm - 0 W/m² -
1787914399 13.33° C 90% 1018.5 hPa 0 mm - 0 W/m² -
1787913797 13.33° C 89% 1018.3 hPa 0 mm - 0 W/m² -
1787913195 13.89° C 88% 1018.5 hPa 0 mm - 0 W/m² -

* Rain latest hour (hover to see other rain measurements)
** Current wind speed in m/s (hover to see current wind gust speed)